Back to catalog

DELTA 1 DEB

AlivePO
NORAD 26846·DEBRIS·🇺🇸 United States

Launched Jun 12, 1975 from Vandenberg Space Force Base

Loading…

Next Passes (next 24 hours)

TLE

FreshSource: Space-Track

Epoch: Sep 13, 2026, 14:03 UTC

1 26846U 75052LA  26256.58549616  .00000152  00000-0  48833-3 0  9997
2 26846  99.7404 289.1876 0171902  87.5454  64.8000 13.12923993408030

Track DELTA 1 DEB in real time with AllMySat

Download on the App Store